Погода Старая Русса

Погода Старая Русса : погода сейчас, прогноз погоды и архив. Всё, что Вы хотите узнать о погоде Старая Русса!

Хотите узнать прогноз погоды Старая Русса? Тогда Вам сюда: Погода Старая Русса

Поиск расширенной информации на нашем сайте:

Другие новости

Новости СМИ2

Главная страница сайта

Новости сайта

03.07.2017

Напоминаем, что на нашем специализированном сайте Метеоцентр.Азия вы можете получить высокодетализированные автоматические прогнозы погоды по пунктам России, СНГ и мира в авиационном формате (включающие направление и скорость ветра, видимость, явления погоды, количество и форму облачности, нижнюю и верхнюю границу облачности).

Рекомендуем: Смотрите подробности грузоперевозки по европе у нас.

Погода Старая Русса - сегодня

Время (UTC), дата Ветер
(°,м/с) 
Видим.   Явления Облачность Т
(°С)
Тd
(°С)
f(%) Тe
(°С)
Pmin
(гПа)
dP
(гПа)
Po
(мм)
O2
(г/м3)
Тmin Tmax R s Состояние
почвы
18 17.11.17 230 (ЮЗ) 20000 м  {дождь}  10/10 400 м 
[Sc]
+4 +3.2 95 +3  1010.8  0.1  756  300    +4.6     
21 17.11.17 230 (ЮЗ) 20000 м    8/8 900 м 
[Sc]
+3.2 +1.9 91 +2  1011.5  0.6  756  301           
00 18.11.17 230 (ЮЗ) 20000 м    9/9 600 м 
[Sc]
+3.4 +1.3 86 +2  1011.6  0.1  756  301           
03 18.11.17 220 (ЮЗ) 20000 м    ясно 
+2.7 -0.1 82 +1  1011.7  0.1  757  302  +2.6    0.3     
06 18.11.17 220 (ЮЗ) 4{10}  20000 м    3/0 средняя 
[Ac trans]
+1.3 -0.9 85 -1  1011.6  -0.1  756  303  +1.3         
09 18.11.17 220 (ЮЗ) 4{10}  20000 м    10/10 660 м 
[Sc]
+3.2 -0.4 77 +1  1011.7  0.1  756  301           
12 18.11.17 200 (Ю) 4{11}  20000 м    10/10 800 м 
[Sc]
+4.4 -0.3 71 +3  1010.1  -1.5  755  300           
15 18.11.17 190 (Ю) 20000 м    10/10 1080 м 
[Sc]
+3.7 +0.1 77 +2  1009.4  -0.7  755  300           
18 18.11.17 190 (Ю) 20000 м    10/10 1200 м 
[Sc]
+3.4 +0.8 83 +2  1008.1  -1.2  754  300    +4.4       
21 18.11.17 180 (Ю) 20000 м    9/0 средняя 
[Ac trans]
+2.9 +0.1 82 +1  1007.9  -0.3  754  300           
00 19.11.17 190 (Ю) 20000 м    10/10 630 м 
[Sc]
+2.3 -0.9 79 +1  1007.4  -0.5  753  301           
03 19.11.17 170 (Ю) 20000 м    10/10 540 м 
[Sc]
+1.6 -0.8 84 +1  1006.3  -1.1  752  301  +1.6         
06 19.11.17 160 (Ю) 20000 м    10/0 
[]
+0.9 -1.5 84 -1  1005.6  -0.7  752  302  +0.9         
09 19.11.17 160 (Ю) 20000 м    10/0 средняя, верхняя 
[Ac As|Cs]
+1.2 -1.8 80 -1  1005.4  -0.2  752  302           
12 19.11.17 160 (Ю) 20000 м    10/0 средняя 
[Ac und]
+2.1 -2.1 74 +1  1004.7  -0.6  751  301           
15 19.11.17 150 (ЮВ) 20000 м    10/0 средняя 
[Ac und]
+1 -2.8 76 1004  -0.8  751  302           
18 19.11.17 150 (ЮВ) 20000 м    10/10 1140 м 
[Sc]
+0.5 -2.3 81 1003.5  -0.5  750  302    +2.2       
21 19.11.17 140 (ЮВ) 10 км  слаб. снег  10/10 240 м 
[Frnb|Ns]
+0.2 -0.3 96 +1  1003.5  750  302           
00 20.11.17 170 (Ю) 10 км  слаб. снег  10/10 180 м 
[Frnb|Ns]
+0.1 -0.1 99 +1  1003.3  0.1  750  302           
03 20.11.17 200 (Ю) 20000 м  {снег}  10/10 480 м 
[Frnb]
+0.5 +0.3 99 +1  1003.8  0.4  751  302  +0.1       
06 20.11.17 170 (Ю) 10 км  слаб. снег  10/10 210 м 
[Frnb|Ns]
+0.6 +0.2 97 1004.7  751  302  +0.1    <0.5  мокрый или
старый снег
50-90% 
09 20.11.17 180 (Ю) 20000 м  {снег}  9/8 240 м средняя 
[St|Ac trans]
+2.1 +1.4 95 +1  1006  1.2  752  301           
12 20.11.17 170 (Ю) 20000 м  {снег}  10/10 630 м 
[Sc]
+2.6 +1.6 93 +2  1006.4  0.5  753  300           
15 20.11.17 180 (Ю) 10 км  слаб. дождь  10/10 360 м 
[Frnb|Ns]
+2.7 +1.8 94 +1  1007.2  0.8  753  300      0.0     
18 20.11.17 180 (Ю) 20000 м  {дождь}  10/10 400 м 
[Sc]
+2.6 +1.5 92 +2  1007.9  0.7  754  301    +2.8  0.0     
Время (UTC), дата Ветер
(°,м/с) 
Видим.   Явления Облачность Т
(°С)
Тd
(°С)
f(%) Тe
(°С)
Pmin
(гПа)
dP
(гПа)
Po
(мм)
O2
(г/м3)
Тmin Tmax R s Состояние
почвы

Для получения пояснительной информации подведите курсор к названию столбца.

ПОГОДА Старая Русса - архив

Всё, что Вы хотите узнать о погоде Старая Русса - удобно и подробно!

Выберите нужную дату (начиная с 1 января 2015* года) и нажмите кнопку "Найти".
Будут отображены архивные сводки погоды по пункту Старая Русса, начиная с указанной даты.


Отображать данные в формате CSV (для использования в таблицах Excel)


Внимание! Наш архив погоды предназначен исключительно для личного некоммерческого использования в познавательных целях. Если Вам необходимы официальные справки о состоянии погоды (для производственных, юридических, коммерческих и т.п. целей), обращайтесь в органы Росгидромета.

*Примечание: данная дата относится к архиву по метеостанциям СССР (Россия, СНГ, Балтия).
Архив по метеостанциям Зарубежной Европы и Азии (кроме Китая) хранится 10 дней, по другим регионам земного шара (Китай, Африка, Америка, Австралия, Океания) - 1 день.

Старая Русса - район местоположения метеостанции


Название, широта, долгота, высота метеостанции:
Старая Русса 58°ш. 31.3°д. 25 м над ур. моря [Российская Федерация]

Дополнительная информация

В oтличие oт бoльшинства пoгoдных сайтoв мы публикуем пoдрoбную метеoинфoрмацию в детальнoм прoфессиoнальнoм фoрмате.

Характеристики температуры и влажнoсти вoздуха измеряются на высoте 2 м в тени вдали oт зданий и деревьев.
Скoрoсть ветра измеряется на высoте 10 м (на урoвне рoста челoвека скoрoсть ветра ниже в 1.5-2 раза). Если метеoстанция нахoдится в гoрoде или в лесу, тo скoрoсть ветра занижена на 2-4 м/с пo сравнению с oткрытым местoм. Скoрoсть ветра над акватoриями крупных рек и oзёр, а также на вершинах хoлмoв на 2-5 м/с выше, чем в oбычных услoвиях.
Атмoсфернoе давление в разных тoчках местнoсти мoжет значительнo oтличаться oт давления на метеoстанции, в зависимoсти oт услoвий рельефа (при пoдъёме на 10 м давление пoнижается примернo на 1 мм рт.ст.).